Regional Weather Roundup
Issued by NWS Newport/Morehead, NC

Current Version | Previous Version | Graphics & Text | Print | Product List | Glossary Off
Versions: 1 2 3 4 5 6 7 8 9 10 11 12 13 14 15 16 17 18 19 20 21 22 23 24 25 26 27 28 29 30 31 32 33 34 35 36 37 38 39 40 41 42 43 44 45 46 47 48 49 50
176 ASUS42 KMHX 281625 RWRMHX WEATHER ROUNDUP FOR EASTERN NORTH CAROLINA NATIONAL WEATHER SERVICE NEWPORT/MOREHEAD CITY NC 1200 PM EDT SAT MAY 28 2016 NOTE: "FAIR" INDICATES FEW OR NO CLOUDS BELOW 12,000 FEET WITH NO SIGNIFICANT WEATHER AND/OR OBSTRUCTIONS TO VISIBILITY NCZ015>017-031-032-045>047-102-103-281700- NORTH COAST CITY SKY/WX TMP DP RH WIND PRES REMARKS EDENTON PTSUNNY 82 81 95 E8 30.21S ELIZABETH CITY SUNNY 81 66 60 E8 30.21S KITTY HAWK SUNNY 81 65 58 E6 30.22R MANTEO NOT AVBL $$ NCZ045>047-081-094-103-104-281700- CENTRAL COAST CITY SKY/WX TMP DP RH WIND PRES REMARKS FRISCO SUNNY 83 68 60 SE10 30.21R $$ NCZ095-097-098-100-101-281700- SOUTHERN COAST CITY SKY/WX TMP DP RH WIND PRES REMARKS BEAUFORT CLOUDY 81 69 67 SE12 30.18S CEDAR ISLAND NOT AVBL JACKSONVILLE PTSUNNY 83 68 60 SE13 30.17S PINEY ISLAND SUNNY N/A N/A N/A E13 30.19R WILMINGTON MOSUNNY 81 66 60 E15 30.16S $$ NCZ011>013-027>030-043-044-078>080-089-090>093-098-281700- COASTAL PLAIN CITY SKY/WX TMP DP RH WIND PRES REMARKS AHOSKIE SUNNY 80 60 51 SE6 30.21S CLINTON SUNNY 83 66 55 NE8 30.18S ELIZABETHTOWN MOSUNNY 82 62 50 NE3 30.17S GOLDSBORO MOSUNNY 86 66 51 E8 30.16 GREENVILLE MOSUNNY 82 63 51 S8 30.20S HAVELOCK PTSUNNY 80 69 69 NE14G23 30.19S KENANSVILLE PTSUNNY 81 64 56 E3 30.18S KINSTON MOSUNNY 82 64 54 N3 30.19F NEW BERN MOSUNNY 83 67 58 E12 30.19S RICHLANDS MOSUNNY 82 67 60 E5 30.17F ROCKY MOUNT MOSUNNY 81 61 50 SW3 30.20S WASHINGTON MOSUNNY 82 64 54 E6 30.19S WHITEVILLE PTSUNNY 80 65 60 NE3 30.15F $$ AMZ130-135-150-152-154-156-158-170-250-252-270-ANZ085-086-088-633-658-670-281700- MARINE OBSERVATIONS STATION/POSITION TIME TEMP WIND PRES WAVE SWELL AIR SEA DIR/SP/G HT/PER HT/PER (UTC) (F) (DEG/KT/KT) (MB) (FT/S) (FT/S) CHESAPEAKE LIGHT 1600 69 120/ 7/ 7 1024.3 64 E VA BEACH 1550 67 63 50/ 4/ 6 1023.4 3/ 9 3/ 9 DUCK 1600 72 63 80/ 8/ 8 1022.8 2 E DUCK 1511 66 N/A 2/ 9 OREGON INLET 1600 74 72 50/ 8/ 10 1023.1 13E OREGON INLT 1600 72 N/A 3/ 9 3/ 9 HATTERAS CG 1600 78 74 110/ 7/ 10 1022.5 DIAMOND BUOY 1550 77 78 100/ 12/ 16 1022.3 5/ 9 3/ 9 CAPE LOOKOUT 1600 76 60/ 9/ 9 1021.7 BEAUFORT LAB 1600 78 73 90/ 10/ 15 1021.3 30 SE NEW RVR IN 1525 75 N/A 5/ 9 27 SE WRIGHTSVLE 1608 77 74 80/ 12/ 17 1020.1 5 SE WRIGHTSVLE 1608 76 75 60/ 12/ 16 1022.0 225 S CAPE HAT 1550 75 77 110/ 19/ 21 1019.2 3/ 7 2/ 7 41 SE CHARLESTON 1550 75 76 10/ 16/ 17 1017.9 6/10 5/10 $$

USA.gov is the U.S. government's official web portal to all federal, state and local government web resources and services.